Location: Lynch Observatory
(39.9540°N, 75.1861°W)
Time: 11:15:11
(UTC-04:00)

ZACube-1 - Pass Details

Date: 24 April 2024
Orbit: 566 x 635 km, 97.7° (Epoch: 25 May)

Event Time Altitude Azimuth Distance (km) Brightness Sun altitude
Rises 05:06:51 0° 354° (N) 2,925 ? -11.8°
Reaches altitude 10° 05:09:39 10° 336° (NNW) 2,021 ? -11.4°
Maximum altitude 05:12:33 18° 294° (WNW) 1,579 ? -10.9°
Enters shadow 05:14:42 13° 261° (W) 1,832 ? -10.5°
